Andrews AFB, MD

3:04 PM EST on January 20, 2017 (GMT -0500)
Andrews Air Force Base-Naf

Weather History for KADW - May, 2013

Change the Weather History Date:

Thursday, May 23, 2013

  Actual Average Record
Temperature  
Mean Temperature 73 °F -  
Max Temperature 81 °F 72 °F 91 °F (2004)
Min Temperature 64 °F 53 °F 42 °F (2002)
Cooling Degree Days 8    
Growing Degree Days 23 (Base 50)    
Moisture  
Dew Point 67 °F    
Average Humidity 82    
Maximum Humidity 99    
Minimum Humidity 61    
Precipitation  
Precipitation 0.17 in - - ()
Sea Level Pressure  
Sea Level Pressure 29.87 in    
Wind  
Wind Speed 9 mph (SSW)    
Max Wind Speed 21 mph    
Max Gust Speed 32 mph    
Visibility 10 miles    
Events Rain , Thunderstorm    
Averages and records for this station are not official NWS values.
T = Trace of Precipitation, MM = Missing Value Source: NWS Daily Summary

Daily Weather History Graph

Daily Weather History Graph

Search for Another Location

Airport or City:

Trip Planner

Search our weather history database for the weather conditions in past years. The results will help you decide how hot, cold, wet, or windy it might be!

Date:

Astronomy

May. 23, 2013 Rise Set
Actual Time 5:48 AM EDT 8:20 PM EDT
Civil Twilight 5:18 AM EDT 8:50 PM EDT
Nautical Twilight 4:40 AM EDT 9:29 PM EDT
Astronomical Twilight 3:57 AM EDT 10:11 PM EDT
Moon 6:50 PM EDT (5/23) 4:31 AM EDT (5/23)
Length of Visible Light 15h 32m
Length of Day
14h 31m
Waxing Gibbous, 97% of the Moon is Illuminated
May 23
Waxing Gibbous
May 25
Full
May 31
Last Quarter
Jun 8
New
Jun 16
First Quarter

Hourly Weather History & Observations

Time (EDT) Temp. Heat Index Dew Point Humidity Pressure Visibility Wind Dir Wind Speed Gust Speed Precip Events Conditions
12:10 AM 71.6 °F - 66.2 °F 83% 29.93 in 8.0 mi West 3.5 mph - N/A Rain , Thunderstorm Light Thunderstorms and Rain
12:35 AM 68.0 °F - 64.4 °F 88% 29.91 in 9.0 mi WSW 3.5 mph - N/A   Overcast
12:58 AM 68.2 °F - 66.4 °F 94% 29.93 in 10.0 mi South 2.3 mph - 0.13 in   Partly Cloudy
1:58 AM 67.5 °F - 67.1 °F 99% 29.91 in 10.0 mi South 2.3 mph - N/A   Clear
2:58 AM 67.1 °F - 66.7 °F 99% 29.90 in 10.0 mi South 5.8 mph - N/A   Mostly Cloudy
3:36 AM 69.8 °F - 68.0 °F 94% 29.88 in 10.0 mi SSW 10.4 mph - N/A Rain Light Rain
3:46 AM 69.8 °F - 68.0 °F 94% 29.89 in 10.0 mi SSW 10.4 mph - N/A   Overcast
3:50 AM 69.8 °F - 68.0 °F 94% 29.89 in 10.0 mi SSW 11.5 mph - N/A   Light Drizzle
3:58 AM 70.2 °F - 68.4 °F 94% 29.91 in 10.0 mi SSW 12.7 mph - 0.00 in   Light Drizzle
4:02 AM 69.8 °F - 68.0 °F 94% 29.89 in 10.0 mi SSW 10.4 mph - N/A   Mostly Cloudy
4:58 AM 70.3 °F - 67.6 °F 91% 29.91 in 10.0 mi SSW 11.5 mph - 0.00 in   Mostly Cloudy
4:59 AM 69.8 °F - 68.0 °F 94% 29.89 in 10.0 mi SSW 10.4 mph - N/A   Light Drizzle
5:10 AM 69.8 °F - 68.0 °F 94% 29.89 in 10.0 mi SSW 8.1 mph - N/A   Mostly Cloudy
5:40 AM 69.8 °F - 68.0 °F 94% 29.90 in 10.0 mi SSW 6.9 mph - N/A   Overcast
5:58 AM 70.0 °F - 68.5 °F 95% 29.91 in 10.0 mi SSW 9.2 mph - 0.00 in   Overcast
6:58 AM 70.9 °F - 68.4 °F 92% 29.92 in 10.0 mi South 10.4 mph - N/A   Overcast
7:33 AM 71.6 °F - 68.0 °F 88% 29.90 in 10.0 mi South 10.4 mph - N/A   Overcast
7:58 AM 71.4 °F - 68.7 °F 91% 29.93 in 10.0 mi South 11.5 mph - N/A   Overcast
8:28 AM 73.4 °F - 68.0 °F 83% 29.90 in 10.0 mi South 11.5 mph - N/A   Mostly Cloudy
8:58 AM 73.8 °F - 68.0 °F 82% 29.93 in 10.0 mi South 12.7 mph - N/A   Mostly Cloudy
9:03 AM 73.4 °F - 68.0 °F 83% 29.91 in 10.0 mi SSW 12.7 mph - N/A   Mostly Cloudy
9:43 AM 75.2 °F - 68.0 °F 78% 29.90 in 10.0 mi SSW 13.8 mph 18.4 mph N/A   Mostly Cloudy
9:58 AM 74.5 °F - 66.7 °F 77% 29.93 in 10.0 mi SSW 8.1 mph - N/A   Mostly Cloudy
10:08 AM 73.4 °F - 66.2 °F 78% 29.91 in 10.0 mi South 10.4 mph - N/A   Mostly Cloudy
10:23 AM 77.0 °F - 68.0 °F 74% 29.91 in 10.0 mi SSW 10.4 mph - N/A   Overcast
10:33 AM 77.0 °F - 68.0 °F 74% 29.90 in 10.0 mi SSW 10.4 mph - N/A   Mostly Cloudy
10:38 AM 77.0 °F - 68.0 °F 74% 29.91 in 10.0 mi SW 12.7 mph - N/A   Mostly Cloudy
10:48 AM 77.0 °F - 68.0 °F 74% 29.91 in 10.0 mi South 10.4 mph - N/A   Mostly Cloudy
10:58 AM 76.6 °F - 66.7 °F 71% 29.92 in 10.0 mi SSW 11.5 mph - N/A   Mostly Cloudy
11:24 AM 77.0 °F - 66.2 °F 69% 29.90 in 10.0 mi SSW 11.5 mph - N/A   Light Drizzle
11:33 AM 77.0 °F - 66.2 °F 69% 29.90 in 10.0 mi SSW 12.7 mph - N/A   Overcast
11:58 AM 77.2 °F - 66.9 °F 71% 29.92 in 10.0 mi South 11.5 mph - 0.00 in   Mostly Cloudy
12:08 PM 77.0 °F - 66.2 °F 69% 29.90 in 10.0 mi SSW 11.5 mph - N/A   Mostly Cloudy
12:18 PM 78.8 °F - 66.2 °F 65% 29.90 in 10.0 mi South 13.8 mph 20.7 mph N/A   Mostly Cloudy
12:28 PM 78.8 °F - 66.2 °F 65% 29.90 in 10.0 mi South 13.8 mph - N/A   Mostly Cloudy
12:58 PM 78.4 °F - 65.3 °F 64% 29.90 in 10.0 mi SSW 16.1 mph - N/A   Mostly Cloudy
1:58 PM 77.5 °F - 65.5 °F 66% 29.89 in 10.0 mi SW 11.5 mph - N/A   Mostly Cloudy
2:58 PM 78.3 °F - 66.6 °F 67% 29.86 in 10.0 mi South 11.5 mph - N/A   Mostly Cloudy
3:22 PM 80.6 °F 83.2 °F 68.0 °F 65% 29.82 in 10.0 mi SSW 11.5 mph - N/A   Scattered Clouds
3:52 PM 80.6 °F 82.7 °F 66.2 °F 61% 29.81 in 10.0 mi South 12.7 mph - N/A   Mostly Cloudy
3:58 PM 79.5 °F - 66.4 °F 64% 29.83 in 10.0 mi South 11.5 mph - N/A   Mostly Cloudy
4:58 PM 78.3 °F - 67.6 °F 70% 29.82 in 10.0 mi SSE 16.1 mph - N/A   Scattered Clouds
5:58 PM 75.4 °F - 66.9 °F 75% 29.81 in 10.0 mi South 16.1 mph - N/A   Mostly Cloudy
6:58 PM 73.9 °F - 68.2 °F 82% 29.79 in 10.0 mi SSE 10.4 mph - N/A   Scattered Clouds
7:58 PM 73.2 °F - 68.2 °F 84% 29.80 in 10.0 mi South 9.2 mph - N/A   Mostly Cloudy
8:03 PM 73.4 °F - 68.0 °F 83% 29.78 in 10.0 mi South 8.1 mph - N/A   Mostly Cloudy
8:48 PM 71.6 °F - 68.0 °F 88% 29.78 in 10.0 mi SSE 8.1 mph - N/A   Mostly Cloudy
8:53 PM 71.6 °F - 68.0 °F 88% 29.78 in 10.0 mi South 6.9 mph - N/A   Mostly Cloudy
8:58 PM 71.2 °F - 68.4 °F 91% 29.80 in 10.0 mi South 5.8 mph - N/A   Mostly Cloudy
9:23 PM 69.8 °F - 68.0 °F 94% 29.78 in 10.0 mi South 2.3 mph - N/A   Mostly Cloudy
9:58 PM 71.1 °F - 68.7 °F 92% 29.80 in 10.0 mi South 5.8 mph - N/A   Overcast
10:13 PM 71.6 °F - 68.0 °F 88% 29.77 in 10.0 mi South 6.9 mph - N/A   Scattered Clouds
10:18 PM 71.6 °F - 68.0 °F 88% 29.77 in 10.0 mi SSW 5.8 mph - N/A   Mostly Cloudy
10:23 PM 71.6 °F - 68.0 °F 88% 29.77 in 10.0 mi SSW 6.9 mph - N/A   Mostly Cloudy
10:28 PM 71.6 °F - 68.0 °F 88% 29.77 in 10.0 mi SW 6.9 mph - N/A   Mostly Cloudy
10:58 PM 71.2 °F - 68.4 °F 91% 29.81 in 10.0 mi WSW 6.9 mph - N/A   Mostly Cloudy
11:12 PM 71.6 °F - 66.2 °F 83% 29.79 in 10.0 mi WNW 20.7 mph 32.2 mph N/A   Light Drizzle
11:17 PM 69.8 °F - 62.6 °F 78% 29.81 in 10.0 mi WNW 18.4 mph 32.2 mph N/A   Light Drizzle
11:27 PM 66.2 °F - 62.6 °F 88% 29.82 in 9.0 mi WNW 10.4 mph 27.6 mph N/A Rain Light Rain
11:58 PM 64.4 °F - 62.4 °F 93% 29.83 in 7.0 mi WNW 6.9 mph - 0.04 in Rain Light Rain